Regional Weather Roundup
Issued by NWS

Home | Current Version | Previous Version | Graphics & Text | Print | Product List | Glossary On
Versions: 1 2 3 4 5 6 7 8 9 10 11 12 13 14 15 16 17 18 19 20 21 22 23 24 25 26 27 28 29 30 31 32 33 34 35 36 37 38 39 40 41 42 43 44 45 46 47 48 49 50
173
ASUS43 KFSD 171302
RWRSD

WEATHER ROUNDUP FOR SOUTH DAKOTA
NATIONAL WEATHER SERVICE SIOUX FALLS SD
700 AM CST SUN DEC 17 2017

NOTE: "FAIR" INDICATES FEW OR NO CLOUDS BELOW 12,000 FEET WITH NO
SIGNIFICANT WEATHER AND/OR OBSTRUCTIONS TO VISIBILITY.


SDZ001>005-009-010-012>017-171400-
NORTHWEST AND NORTH CENTRAL SOUTH DAKOTA

CITY           SKY/WX    TMP DP  RH WIND       PRES   REMARKS
BUFFALO          N/A     24  22  91 W5        29.92F WCI  18
FAITH            N/A     26  23  88 W3        30.01S
MOBRIDGE       MOCLDY    27  24  89 CALM      30.01S
$$

SDZ012>016-024>037-041>051-057-063-072>074-171400-
SOUTHWEST AND SOUTH CENTRAL SOUTH DAKOTA

CITY           SKY/WX    TMP DP  RH WIND       PRES   REMARKS
RAPID CTY ARPT CLOUDY    29  26  89 CALM      30.01S
PIERRE         CLOUDY    30  29  96 NW3       30.04S
CUSTER         CLOUDY    23  19  85 SW3       29.92S
ELLSWORTH AFB  CLOUDY    29  29 100 CALM      30.00R
PHILIP         CLOUDY    31  28  89 W5        30.04S WCI  26
PINE RIDGE     CLOUDY    30  29  96 SW3       30.02S
SPEARFISH      CLOUDY    25  25 100 CALM      29.98S
WINNER         CLOUDY    33  30  88 CALM      30.05S
$$

SDZ004>011-016>023-039-040-171400-
NORTHEAST SOUTH DAKOTA

CITY           SKY/WX    TMP DP  RH WIND       PRES   REMARKS
ABERDEEN       CLOUDY    24  24 100 W3        30.05S
WATERTOWN      CLOUDY    27  26  96 CALM      30.02S
BROOKINGS      CLOUDY    26  25  96 NW3       30.04R FOG
SISSETON         N/A     26  25  96 E7        30.04S WCI  18
$$

SDZ017-020-022-023-036>040-048>070-171400-
SOUTHEAST SOUTH DAKOTA

CITY           SKY/WX    TMP DP  RH WIND       PRES   REMARKS
SIOUX FALLS    CLOUDY    23  22  96 N5        30.06R FOG     WCI  17
HURON          CLOUDY    29  29 100 MISG      30.06R FOG
CHAMBERLAIN    CLOUDY    32  32 100 CALM      30.06R
MITCHELL       CLOUDY    29  29 100 SW3       30.09R
YANKTON        CLOUDY    23  22  96 NW7       30.06F WCI  15
$$

ABBREVIATIONS USED IN REMARKS
   TC - TEMPERATURE IN CELSIUS
  WCI - WIND CHILL INDEX
   HX - HEAT INDEX
  VSB - VISIBILITY





USA.gov is the U.S. government's official web portal to all federal, state and local government web resources and services.